Home   Weather   Prešov   Past weeks
Flag for Slovakia

Past Weather in Prešov, Slovakia — Yesterday and Last 2 Weeks

Now
68 °F

Sunny.


Feels Like: 68 °F
Forecast: 68 / 47 °F
Wind: 7 mph from Southwest

Location: Kosice - Barca

Current Time: Oct 18, 2019 at 3:59:55 pm

Latest Report: Oct 18, 2019 at 3:30 pm


Visibility: 10 mi

Pressure: 30.01 "Hg

Humidity: 53%

Dew Point: 50 °F

Location of PrešovLocation

Past Weather in Prešov — Graph

°F

Prešov Temperature Yesterday

Maximum temperature yesterday: 66 °F (at 2:00 pm)
Minimum temperature yesterday: 41 °F (at 7:30 am)
Average temperature yesterday: 54 °F

High & Low Weather Summary for the Past Weeks

 TemperatureHumidityPressure
High73 °F (Oct 16, 2:30 pm)100% (Oct 5, 3:30 am)30.27 "Hg (Oct 5, 3:30 am)
Low28 °F (Oct 8, 5:30 am)40% (Oct 7, 12:30 pm)29.74 "Hg (Oct 5, 3:30 pm)
Average51 °F77%30.04 "Hg
* Reported Oct 3 3:00 pm — Oct 18 3:00 pm, Prešov. Weather by CustomWeather, © 2019

Note: Actual official high and low records may vary slightly from our data, if they occured in-between our weather recording intervals... More about our weather records

Advertising

Prešov Weather History for the Previous 24 Hours

Scroll right to see more
 ConditionsComfort  
Time TempWeatherWind HumidityBarometerVisibility
3:00 pm
Fri, Oct 18
70 °FSunny.6 mph50%30.01 "Hg10 mi
2:30 pm70 °FPassing clouds.7 mph50%30.01 "HgN/A
2:00 pm68 °FPassing clouds.7 mph49%30.01 "HgN/A
1:30 pm70 °FSunny.5 mph50%30.04 "Hg10 mi
1:00 pm68 °FPassing clouds.3 mph53%30.04 "HgN/A
12:30 pm68 °FSunny.3 mph56%30.04 "Hg10 mi
12:00 pm66 °FSunny.2 mph56%30.07 "Hg10 mi
11:30 am64 °FSunny.1 mph60%30.07 "Hg10 mi
11:00 am61 °FSunny.2 mph63%30.07 "Hg10 mi
10:30 am59 °FSunny.2 mph72%30.07 "Hg10 mi
10:00 am59 °FSunny.2 mph72%30.07 "Hg10 mi
9:30 am55 °FSunny.1 mph77%30.07 "Hg10 mi
9:00 am52 °FSunny.1 mph88%30.07 "Hg10 mi
8:16 am50 °FSunny.1 mph88%30.07 "Hg10 mi
8:00 am46 °FSunny.1 mph93%30.07 "Hg10 mi
7:30 am46 °FSunny.2 mph87%30.07 "Hg10 mi
7:00 am45 °FSunny.1 mph93%30.07 "Hg10 mi
6:30 am45 °FClear.2 mph93%30.07 "Hg10 mi
6:00 am46 °FClear.3 mph87%30.07 "Hg10 mi
5:30 am46 °FClear.2 mph93%30.07 "Hg10 mi
5:00 am46 °FClear.2 mph87%30.07 "Hg10 mi
4:30 am46 °FPassing clouds.5 mph93%30.07 "HgN/A
4:00 am46 °FPassing clouds.3 mph93%30.07 "HgN/A
3:30 am46 °FPassing clouds.3 mph87%30.07 "HgN/A
3:00 am46 °FPassing clouds.3 mph87%30.07 "HgN/A
2:30 am46 °FClear.2 mph87%30.07 "Hg10 mi
2:00 am46 °FClear.2 mph87%30.09 "Hg10 mi
1:30 am46 °FClear.1 mph87%30.07 "Hg10 mi
1:00 am46 °FClear.1 mph87%30.09 "Hg10 mi
12:30 am45 °FClear.2 mph87%30.07 "Hg10 mi
12:00 am46 °FClear.1 mph87%30.07 "Hg10 mi
11:30 pm
Thu, Oct 17
48 °FClear.6 mph87%30.09 "Hg10 mi
11:00 pm50 °FClear.3 mph82%30.09 "Hg10 mi
10:30 pm50 °FClear.2 mph82%30.09 "Hg10 mi
10:00 pm50 °FClear.2 mph82%30.09 "Hg10 mi
9:30 pm52 °FClear.5 mph82%30.09 "Hg10 mi
9:00 pm52 °FClear.6 mph82%30.09 "Hg10 mi
8:30 pm52 °FClear.6 mph82%30.09 "Hg10 mi
8:00 pm50 °FClear.3 mph88%30.09 "Hg10 mi
7:30 pm54 °FPassing clouds.6 mph72%30.09 "HgN/A
7:00 pm55 °FClear.5 mph67%30.09 "Hg10 mi
6:30 pm59 °FClear.3 mph59%30.09 "Hg10 mi
6:00 pm61 °FClear.5 mph59%30.07 "Hg10 mi
4:30 pm66 °FPassing clouds.3 mph49%30.09 "HgN/A
4:00 pm66 °FPassing clouds.6 mph49%30.09 "HgN/A
3:30 pm66 °FSunny.7 mph49%30.09 "Hg10 mi
3:00 pm66 °FPassing clouds.6 mph52%30.09 "HgN/A
Weather by CustomWeather, © 2019

See weather overview